This demonstration page uses our WeatherBlox Daily Observations layout. Learn more.

Left ArrowRight Arrow

36.17497, -115.13722

Hourly Observations for December 8, 2021

Temp ( °F °C ) Dew Point ( °F °C ) Humidity (%) Winds ( mph kmh ) Pressure ( in mb ) Visibility ( mi km ) Precip ( " mm )
12:53 am 00:53 Cloudy 55 12.8 46 7.8 72 72 W 5 7 30.07 1018 10 16 N/A
1:53 am 01:53 Cloudy 55 12.8 46 7.8 72 72 NE 3 6 30.07 1018 10 16 N/A
2:53 am 02:53 Mostly Cloudy 53 11.7 47 8.3 80 80 SE 3 6 30.06 1018 10 16 N/A
3:53 am 03:53 Clear 52 11.1 47 8.3 83 83 N N/A 30.04 1017 10 16 N/A
4:53 am 04:53 Clear 51 10.6 46 7.8 83 83 WSW 3 6 30.05 1018 10 16 N/A
5:53 am 05:53 Clear 49 9.4 44 6.7 83 83 N N/A 30.05 1018 10 16 N/A
6:53 am 06:53 Cloudy 50 10 43 6.1 77 77 WNW 6 9 30.07 1018 10 16 N/A
7:53 am 07:53 Cloudy 52 11.1 43 6.1 72 72 N N/A 30.08 1019 10 16 N/A
8:53 am 08:53 Sunny 55 12.8 41 5 59 59 SSW 3 6 30.07 1018 10 16 N/A
9:53 am 09:53 Sunny 58 14.4 42 5.6 56 56 SE 5 7 30.06 1018 10 16 N/A
10:53 am 10:53 Sunny 60 15.6 41 5 50 50 S 3 6 30.03 1017 10 16 N/A
11:53 am 11:53 Sunny 62 16.7 40 4.4 44 44 SE 10 17 29.99 1016 10 16 N/A
12:53 pm 12:53 Sunny 63 17.2 40 4.4 43 43 SE 8 13 29.96 1015 10 16 N/A
1:53 pm 13:53 Sunny 64 17.8 40 4.4 41 41 ENE 5 7 29.92 1013 10 16 N/A
2:53 pm 14:53 Sunny 65 18.3 39 3.9 39 39 ENE 6 9 29.92 1013 10 16 N/A
3:53 pm 15:53 Sunny 65 18.3 39 3.9 39 39 NE 5 7 29.92 1013 10 16 N/A
4:53 pm 16:53 Clear 62 16.7 40 4.4 44 44 ENE 8 13 29.91 1013 10 16 N/A
5:53 pm 17:53 Clear 58 14.4 40 4.4 51 51 NNW 3 6 29.92 1013 10 16 N/A
6:53 pm 18:53 Clear 56 13.3 40 4.4 55 55 N N/A 29.92 1013 10 16 N/A
7:53 pm 19:53 Clear 55 12.8 40 4.4 57 57 WNW 5 7 29.91 1013 10 16 N/A
8:53 pm 20:53 Clear 53 11.7 39 3.9 59 59 N N/A 29.91 1013 10 16 N/A
9:53 pm 21:53 Clear 51 10.6 38 3.3 61 61 N N/A 29.89 1012 10 16 N/A
10:53 pm 22:53 Clear 50 10 39 3.9 66 66 N N/A 29.87 1012 10 16 N/A
11:53 pm 23:53 Clear 48 8.9 37 2.8 66 66 WNW 6 9 29.86 1011 10 16 N/A

Powered by AerisWeather